TimeEDT,TemperatureF,Dew PointF,Humidity,Sea Level PressureIn,VisibilityMPH,Wind Direction,Wind SpeedMPH,Gust SpeedMPH,PrecipitationIn,Events,Conditions,WindDirDegrees,DateUTC
12:15 AM,71.6,66.2,83,30.14,10.0,Calm,Calm,-,N/A,,Unknown,0,2013-05-31 04:15:00
12:35 AM,71.6,66.2,83,30.15,10.0,Calm,Calm,-,N/A,,Unknown,0,2013-05-31 04:35:00
12:55 AM,69.8,66.2,88,30.15,10.0,Calm,Calm,-,N/A,,Unknown,0,2013-05-31 04:55:00
1:15 AM,66.2,64.4,94,30.15,10.0,Calm,Calm,-,N/A,,Unknown,0,2013-05-31 05:15:00
1:35 AM,64.4,62.6,94,30.14,10.0,Calm,Calm,-,N/A,,Unknown,0,2013-05-31 05:35:00
1:55 AM,66.2,64.4,94,30.14,10.0,Calm,Calm,-,N/A,,Unknown,0,2013-05-31 05:55:00
2:15 AM,66.2,64.4,94,30.15,10.0,Calm,Calm,-,N/A,,Unknown,0,2013-05-31 06:15:00
2:35 AM,66.2,64.4,94,30.14,10.0,Calm,Calm,-,N/A,,Unknown,0,2013-05-31 06:35:00
2:55 AM,64.4,64.4,100,30.14,10.0,Calm,Calm,-,N/A,,Unknown,0,2013-05-31 06:55:00
3:15 AM,62.6,62.6,100,30.14,10.0,Calm,Calm,-,N/A,,Unknown,0,2013-05-31 07:15:00
3:35 AM,66.2,64.4,94,30.15,10.0,Calm,Calm,-,N/A,,Unknown,0,2013-05-31 07:35:00
3:55 AM,64.4,64.4,100,30.14,10.0,Calm,Calm,-,N/A,,Unknown,0,2013-05-31 07:55:00
4:15 AM,62.6,60.8,94,30.15,10.0,Calm,Calm,-,N/A,,Unknown,0,2013-05-31 08:15:00
4:35 AM,60.8,60.8,100,30.16,5.0,NW,3.5,-,N/A,,Unknown,310,2013-05-31 08:35:00
4:55 AM,62.6,62.6,100,30.16,4.0,Calm,Calm,-,N/A,,Unknown,0,2013-05-31 08:55:00
5:15 AM,60.8,60.8,100,30.15,7.0,SSE,3.5,-,N/A,,Unknown,160,2013-05-31 09:15:00
5:35 AM,60.8,60.8,100,30.15,2.0,SSE,4.6,-,N/A,,Unknown,150,2013-05-31 09:35:00
5:55 AM,60.8,59.0,94,30.16,5.0,Calm,Calm,-,N/A,,Unknown,0,2013-05-31 09:55:00
6:15 AM,62.6,62.6,100,30.16,5.0,Calm,Calm,-,N/A,,Unknown,0,2013-05-31 10:15:00
6:35 AM,62.6,62.6,100,30.16,5.0,Calm,Calm,-,N/A,,Unknown,0,2013-05-31 10:35:00
6:55 AM,64.4,64.4,100,30.17,4.0,Calm,Calm,-,N/A,,Unknown,0,2013-05-31 10:55:00
7:15 AM,66.2,64.4,94,30.17,8.0,Calm,Calm,-,N/A,,Unknown,0,2013-05-31 11:15:00
7:35 AM,66.2,66.2,100,30.17,9.0,Calm,Calm,-,N/A,,Unknown,0,2013-05-31 11:35:00
8:50 AM,73.4,66.2,78,30.16,10.0,SSW,4.6,-,N/A,,Clear,210,2013-05-31 12:50:00
9:45 AM,78.8,66.2,65,30.16,10.0,SW,4.6,-,N/A,,Clear,220,2013-05-31 13:45:00
10:50 AM,82.4,64.4,54,30.15,10.0,SSW,5.8,-,N/A,,Clear,210,2013-05-31 14:50:00
12:55 PM,87.8,64.4,46,30.13,10.0,SSW,12.7,16.1,N/A,,Clear,210,2013-05-31 16:55:00
1:55 PM,87.8,64.4,46,30.11,10.0,South,13.8,20.7,N/A,,Unknown,180,2013-05-31 17:55:00
2:15 PM,87.8,64.4,46,30.10,10.0,SSW,12.7,17.3,N/A,,Unknown,210,2013-05-31 18:15:00
2:35 PM,89.6,62.6,40,30.10,10.0,SSW,11.5,16.1,N/A,,Unknown,210,2013-05-31 18:35:00
2:45 PM,89.6,62.6,40,30.09,10.0,SW,10.4,18.4,N/A,,Partly Cloudy,220,2013-05-31 18:45:00
2:55 PM,89.6,62.6,40,30.09,10.0,South,13.8,18.4,N/A,,Unknown,190,2013-05-31 18:55:00
3:55 PM,89.6,64.4,43,30.07,10.0,South,12.7,17.3,N/A,,Unknown,190,2013-05-31 19:55:00
4:15 PM,89.6,64.4,43,30.06,10.0,South,12.7,17.3,N/A,,Unknown,190,2013-05-31 20:15:00
4:35 PM,89.6,64.4,43,30.06,10.0,SSW,10.4,-,N/A,,Unknown,210,2013-05-31 20:35:00
4:45 PM,89.6,64.4,43,30.06,10.0,SW,8.1,17.3,N/A,,Partly Cloudy,220,2013-05-31 20:45:00
4:55 PM,89.6,64.4,43,30.05,10.0,South,13.8,-,N/A,,Unknown,180,2013-05-31 20:55:00
5:15 PM,89.6,64.4,43,30.05,10.0,South,12.7,19.6,N/A,,Unknown,180,2013-05-31 21:15:00
5:35 PM,89.6,64.4,43,30.05,10.0,SSW,10.4,-,N/A,,Unknown,200,2013-05-31 21:35:00
5:55 PM,87.8,62.6,43,30.04,10.0,SSW,11.5,16.1,N/A,,Unknown,200,2013-05-31 21:55:00
6:15 PM,87.8,62.6,43,30.04,10.0,SSW,9.2,-,N/A,,Unknown,210,2013-05-31 22:15:00
6:35 PM,87.8,62.6,43,30.04,10.0,South,15.0,-,N/A,,Unknown,190,2013-05-31 22:35:00
6:55 PM,86.0,62.6,45,30.04,10.0,SSW,10.4,17.3,N/A,,Unknown,200,2013-05-31 22:55:00
7:15 PM,86.0,62.6,45,30.05,10.0,SSW,9.2,-,N/A,,Unknown,200,2013-05-31 23:15:00
7:35 PM,84.2,64.4,51,30.05,10.0,South,5.8,-,N/A,,Unknown,180,2013-05-31 23:35:00
7:55 PM,82.4,64.4,54,30.05,10.0,South,5.8,-,N/A,,Unknown,190,2013-05-31 23:55:00
8:50 PM,75.2,64.4,69,30.05,10.0,Calm,Calm,-,N/A,,Clear,0,2013-06-01 00:50:00
10:35 PM,75.2,64.4,69,30.06,10.0,South,4.6,-,N/A,,Unknown,190,2013-06-01 02:35:00
10:55 PM,75.2,64.4,69,30.06,10.0,South,5.8,-,N/A,,Unknown,190,2013-06-01 02:55:00
11:15 PM,73.4,64.4,73,30.06,10.0,South,3.5,-,N/A,,Unknown,180,2013-06-01 03:15:00
11:35 PM,73.4,64.4,73,30.06,10.0,South,3.5,-,N/A,,Unknown,190,2013-06-01 03:35:00
11:55 PM,73.4,64.4,73,30.06,10.0,South,5.8,-,N/A,,Unknown,180,2013-06-01 03:55:00